Theta_e
354 361 364 365 364 363 361 360 360 360 362 362 362 363 362 362 362 362 361 361 362 362 360 359 359 356 355 356 356 357 359 358 356 354 356 356 356 355 355 349 349 345 348
358 361 365 365 364 362 361 359 359 360 361 361 361 361 361 360 360 360 360 361 362 362 359 358 357 355 354 354 354 355 355 357 356 355 355 354 354 354 353 349 348 346 349
358 361 363 364 364 362 361 360 359 360 360 360 361 360 360 360 360 360 361 361 362 361 358 357 356 354 352 352 352 353 354 356 356 355 352 343 345 350 350 350 349 349 349
359 360 360 364 364 362 360 360 360 359 359 360 360 360 360 360 360 360 361 362 362 361 359 358 357 354 353 352 352 353 354 354 355 353 343 342 342 351 351 351 351 351 350
358 360 360 364 364 362 360 360 360 360 359 359 359 359 360 360 360 360 361 362 361 360 359 358 356 355 352 352 354 355 356 357 356 353 347 347 341 352 352 352 352 352 351
356 359 362 363 363 362 360 359 360 360 359 358 359 359 359 360 360 360 361 362 361 359 359 358 356 355 354 352 352 353 355 356 353 340 344 346 344 355 353 354 352 352 352
353 359 362 363 363 363 360 359 360 360 359 358 358 359 359 360 360 360 361 361 360 359 358 356 355 355 355 353 351 353 354 352 344 347 347 347 343 354 356 354 352 351 350
353 359 360 363 363 362 361 360 360 360 359 359 358 358 359 359 360 360 361 361 361 360 358 356 355 354 354 354 354 353 353 353 352 344 344 344 349 356 355 353 351 350 350
354 356 357 359 361 363 361 360 359 359 358 358 358 357 359 359 359 360 360 360 360 359 358 357 356 354 354 353 353 353 353 354 344 343 344 344 355 357 355 352 350 350 349
354 353 353 356 359 358 358 360 359 359 359 358 358 358 358 358 359 359 358 359 360 359 358 356 355 354 353 353 352 352 352 352 344 341 339 346 355 357 355 351 350 349 348
353 351 352 353 357 356 357 358 359 359 359 358 359 358 355 351 352 355 357 357 359 359 358 356 355 354 353 352 352 352 351 342 340 338 335 345 356 357 355 351 350 349 347
347 350 351 353 355 355 358 355 355 355 355 354 354 354 352 352 350 353 355 357 358 359 358 356 355 353 351 342 341 347 341 340 337 336 334 349 355 358 355 351 349 348 347
324 351 350 352 353 354 354 354 352 354 352 352 352 352 351 349 349 350 350 350 351 355 350 352 349 346 342 339 337 334 335 335 334 334 336 351 356 358 356 352 349 347 348
342 349 350 351 351 348 352 353 351 351 350 349 349 349 348 346 345 347 348 347 347 350 349 346 344 342 340 338 335 332 329 330 331 330 331 351 355 358 358 353 349 348 348
325 345 346 346 347 347 349 351 350 350 350 350 349 349 349 345 342 344 342 341 345 346 348 346 344 342 340 338 335 333 331 328 329 327 328 346 355 356 357 354 350 348 347
311 342 345 343 343 343 345 346 347 348 348 348 348 349 350 347 342 340 340 340 343 346 346 346 342 341 339 337 334 332 330 328 328 327 331 338 355 353 355 355 353 350 348
307 316 342 343 343 343 342 344 342 344 346 345 345 346 349 348 346 342 340 339 341 345 344 344 342 340 338 335 333 332 329 329 328 327 332 339 348 353 353 354 353 352 350
307 317 329 338 345 346 345 345 344 343 342 341 341 343 346 348 347 342 341 339 341 342 342 342 341 338 336 335 333 332 330 327 328 331 335 341 345 348 352 353 353 353 352
305 306 313 315 318 324 335 339 340 340 342 342 344 345 342 344 346 344 342 343 340 341 341 341 340 339 335 334 333 331 328 327 328 335 341 342 344 347 345 350 351 351 351
307 310 312 313 314 317 319 318 317 316 316 320 329 338 342 343 344 343 344 341 341 339 340 342 340 339 338 335 335 332 329 329 331 337 341 343 342 344 343 343 347 347 349
317 318 318 317 315 314 314 312 310 313 314 316 318 324 331 341 343 341 341 343 343 342 340 341 341 338 335 334 326 325 328 334 334 337 341 341 341 342 341 341 342 340 341
314 316 316 318 319 320 319 319 318 318 318 319 320 322 324 327 330 336 339 340 341 341 340 338 336 334 334 334 327 323 321 327 335 337 339 342 343 342 340 340 338 335 335
312 314 317 319 320 320 320 319 318 317 316 316 318 320 323 326 328 334 339 340 340 340 339 339 337 333 332 330 330 328 322 321 326 332 334 335 336 337 336 334 334 332 331
314 318 318 318 319 320 318 316 315 313 312 314 316 319 321 325 329 334 337 340 340 339 339 340 338 336 334 332 330 332 331 329 325 324 328 328 331 334 332 331 331 329 326
310 313 312 312 313 312 313 313 312 311 312 315 316 315 317 321 326 328 331 332 335 336 339 336 335 333 331 333 331 331 331 331 331 327 323 322 326 327 329 328 327 324 322
304 305 305 305 305 306 307 308 308 308 309 310 311 311 313 318 321 325 329 329 327 326 331 332 330 331 330 330 331 331 330 327 328 325 319 318 322 321 323 322 320 318 318
Wind_Speed
6 7 12 12 14 15 16 16 17 18 16 16 16 16 17 17 18 18 18 17 16 15 14 12 11 11 11 11 11 11 11 13 14 15 14 13 12 11 12 13 13 9 12
12 10 13 12 14 15 16 17 17 17 16 16 16 15 16 16 17 17 17 16 15 15 14 12 12 11 10 11 10 11 11 11 12 13 13 11 10 10 13 11 12 9 11
13 11 11 12 14 15 15 16 16 16 16 16 16 16 15 15 16 16 15 15 14 14 13 12 12 11 11 10 11 11 11 10 10 10 10 4 4 9 9 9 9 9 9
11 10 10 14 14 16 16 15 15 16 17 16 16 16 16 15 15 15 14 13 13 14 13 12 11 10 11 11 11 10 10 10 10 10 4 4 5 7 7 7 7 6 7
10 9 11 15 13 15 16 15 15 15 16 15 16 16 15 14 14 13 13 12 12 12 12 11 10 10 10 10 10 9 8 8 9 7 4 3 3 6 6 4 5 6 7
10 9 13 16 15 14 15 15 14 15 15 15 14 14 14 13 12 12 11 11 11 11 10 9 9 9 9 10 10 9 7 6 5 3 2 4 5 8 7 5 5 6 8
10 8 11 16 15 15 16 16 15 14 14 14 14 14 14 12 11 10 10 10 10 11 11 9 9 8 7 8 9 8 7 6 3 2 4 4 5 12 9 8 7 8 9
13 11 12 17 18 17 15 15 15 14 15 14 13 13 13 12 11 10 10 10 10 9 9 9 8 7 6 6 7 8 7 7 4 3 4 4 8 12 11 9 9 10 11
7 6 3 6 12 18 17 16 15 15 14 14 13 12 12 12 12 10 10 9 9 9 9 8 8 7 7 7 7 8 8 8 4 3 1 3 11 12 12 10 11 11 12
5 5 5 5 5 6 8 15 14 13 13 12 12 11 11 11 10 9 8 8 8 8 8 7 8 8 8 8 8 9 9 10 4 4 3 3 10 13 13 12 12 12 13
5 5 5 6 8 8 6 8 12 15 13 12 11 12 8 4 5 7 7 8 8 8 8 7 7 8 8 9 10 9 10 3 4 3 3 7 12 14 15 14 14 14 14
5 6 6 6 8 10 7 7 5 7 6 6 7 7 6 7 5 6 7 9 9 8 8 8 8 8 8 3 4 9 3 4 4 4 3 10 15 16 15 14 14 14 15
4 7 9 8 6 6 4 4 3 3 4 4 8 8 8 6 5 4 3 3 4 8 3 5 4 3 4 4 4 4 4 4 3 3 6 10 14 17 17 16 15 16 15
4 7 10 11 10 6 4 5 5 3 5 5 7 8 6 5 6 7 6 5 4 4 6 5 3 4 5 6 6 6 5 4 3 3 5 11 15 17 17 17 17 17 16
5 5 7 7 9 9 7 6 6 7 6 7 7 7 6 6 3 3 4 3 5 4 8 8 6 6 6 6 7 7 8 6 6 4 4 13 15 17 17 17 18 19 18
3 6 7 8 7 7 6 6 5 5 5 4 4 5 9 5 5 4 4 5 6 7 8 9 7 6 6 5 8 8 9 5 7 7 5 6 17 17 16 17 17 19 18
4 6 8 9 8 7 7 6 5 5 5 5 5 7 8 8 7 6 6 6 7 6 7 6 5 5 5 5 8 8 8 8 7 7 6 6 8 18 17 17 18 18 18
6 8 7 5 8 8 8 7 5 3 3 3 4 4 7 8 8 7 6 6 6 5 5 6 7 6 6 7 7 8 8 6 6 7 7 8 8 9 14 18 17 18 17
4 2 1 4 4 3 4 3 3 3 2 2 1 3 5 6 8 8 6 7 6 5 7 7 7 6 6 7 7 6 6 6 6 7 8 9 9 9 7 14 17 16 15
7 6 7 7 8 6 4 4 3 3 2 2 2 3 5 5 7 6 6 7 6 5 7 8 10 7 8 8 6 6 5 5 5 5 7 6 7 9 8 6 8 9 14
7 8 7 8 5 4 3 3 2 1 1 1 0 2 4 4 6 5 6 7 7 8 11 11 8 7 6 3 1 3 4 6 6 6 5 6 8 8 6 6 5 5 7
7 9 8 8 6 4 3 2 2 2 2 1 2 4 6 7 6 6 7 8 10 8 10 8 5 3 4 4 5 1 3 3 3 6 5 6 9 7 8 8 8 8 6
8 7 8 7 6 4 4 2 2 3 3 4 4 2 4 7 7 7 9 8 9 9 8 9 7 8 7 4 9 5 3 6 1 2 5 5 4 5 4 6 7 8 7
7 7 7 7 8 8 8 5 2 1 1 2 2 2 5 6 7 7 9 10 9 7 9 8 7 7 7 9 4 7 7 2 3 4 2 2 4 6 6 6 7 7 6
7 7 6 7 8 7 7 5 3 4 2 3 3 5 5 6 7 7 7 8 9 5 6 8 8 10 8 8 9 4 5 8 10 7 8 3 2 2 4 5 5 4 5
6 6 6 7 6 7 7 8 8 7 7 5 6 6 5 4 5 7 7 6 7 7 7 8 8 9 8 7 7 7 10 6 10 5 4 1 2 1 2 2 4 3 2
Wind_Direction
189 159 163 151 139 129 124 121 120 120 119 118 116 117 120 126 130 134 134 135 139 139 138 137 134 133 132 131 132 133 132 130 130 132 135 136 135 137 141 128 128 130 126
144 149 162 159 147 137 132 129 127 126 126 125 124 124 126 130 133 135 136 137 140 142 142 143 140 138 139 136 137 138 137 136 133 135 140 142 134 117 145 136 136 139 132
139 145 157 162 153 143 137 134 132 132 130 130 131 132 134 135 136 137 139 141 144 147 146 147 146 147 143 142 142 142 142 133 131 138 138 135 135 132 138 138 137 137 136
139 150 155 163 157 149 144 141 138 139 139 138 137 136 138 139 140 140 142 144 149 151 152 152 154 156 150 151 150 149 145 142 145 146 142 151 157 149 138 144 140 136 129
142 155 160 162 160 155 150 148 146 145 145 144 143 143 143 145 146 146 145 146 153 159 161 161 164 165 159 159 155 154 155 155 159 161 170 169 181 163 158 158 153 135 127
148 158 166 164 161 158 157 155 154 152 152 150 151 150 150 151 151 151 151 154 160 168 174 176 174 176 173 166 163 165 167 170 169 185 214 226 196 170 159 168 152 137 131
155 160 164 169 163 164 165 164 162 160 158 159 160 160 159 157 157 157 160 165 172 176 181 187 189 190 187 177 172 178 182 192 175 238 265 243 185 166 164 169 149 137 134
161 167 173 176 168 168 171 171 167 168 166 167 167 167 164 165 166 169 173 177 181 184 189 197 201 204 204 195 184 192 195 206 194 232 285 180 172 160 166 166 158 153 144
155 155 180 189 180 171 172 174 172 170 173 171 172 173 174 174 178 180 186 188 191 192 194 198 207 215 221 219 207 207 207 217 217 242 272 169 173 167 170 173 170 163 157
124 148 151 148 182 183 177 176 173 175 174 176 175 176 181 184 189 194 195 203 207 204 208 209 215 224 232 236 228 216 217 225 227 244 252 207 183 180 178 181 181 174 171
155 163 155 160 174 180 180 187 178 178 180 179 183 184 180 177 193 204 207 217 220 220 221 224 229 234 243 249 251 242 233 238 248 247 241 234 202 195 188 186 189 184 182
219 176 168 164 174 176 177 187 182 185 179 179 180 182 187 196 196 199 214 222 228 229 230 233 240 245 252 263 276 267 234 233 236 253 251 245 212 202 197 192 197 195 193
214 179 174 162 163 167 164 163 184 171 188 194 200 197 197 201 209 214 203 216 205 223 212 235 240 234 238 239 251 257 261 237 245 248 261 257 209 202 199 198 200 204 203
216 188 174 171 162 174 148 177 198 182 205 208 211 211 210 214 209 209 214 216 210 215 223 217 215 228 237 242 245 256 243 236 224 252 259 254 211 206 206 201 203 212 211
210 202 177 162 169 175 168 172 172 198 198 209 209 207 217 227 208 222 228 206 213 202 228 234 227 220 232 240 248 248 254 226 231 231 230 243 220 214 207 205 208 211 215
142 189 177 175 176 167 162 168 185 186 184 182 181 192 216 197 208 202 214 226 233 221 216 223 221 228 234 232 251 252 256 231 224 229 234 230 217 218 214 208 214 216 214
204 183 194 172 161 176 181 183 188 193 178 190 198 200 203 208 219 211 221 223 233 235 244 241 227 223 236 237 244 247 247 240 228 224 227 217 223 214 212 210 213 220 215
182 185 179 160 171 177 186 192 195 179 178 207 225 204 201 203 202 210 230 228 237 227 226 237 241 234 228 233 245 250 248 239 225 225 218 214 214 212 212 210 213 220 214
29 30 44 30 56 51 63 75 81 75 39 8 269 263 244 229 214 212 220 235 204 212 238 230 236 231 238 234 229 241 248 253 233 235 218 213 211 209 208 212 210 215 214
123 123 115 107 106 106 107 96 78 78 51 19 331 274 265 236 236 226 237 226 208 193 232 234 234 221 236 245 246 237 235 252 253 228 219 215 201 207 201 193 201 204 202
78 97 100 104 88 106 98 127 103 68 1 42 155 300 306 273 248 231 243 244 230 230 234 234 224 228 234 250 359 279 249 217 234 239 222 222 210 205 201 192 183 171 179
83 95 89 90 92 83 90 96 123 164 177 202 331 6 359 349 318 276 242 238 233 230 234 229 199 212 233 220 227 223 283 289 207 209 212 217 217 202 194 188 176 168 164
53 49 84 91 94 90 101 100 31 28 24 13 1 346 322 316 306 293 280 256 231 226 232 224 205 189 230 222 223 197 221 222 184 171 207 189 192 197 195 186 176 173 170
30 41 45 53 40 26 15 28 64 143 205 264 269 265 292 300 295 288 286 275 247 227 223 223 208 209 208 235 220 235 261 335 261 243 248 226 164 198 192 195 184 187 167
45 45 47 52 44 28 20 21 350 329 297 292 281 280 285 293 294 292 277 276 265 230 224 205 215 210 209 209 202 200 234 236 257 259 250 232 139 170 228 198 182 183 154
41 46 31 50 41 28 37 29 30 11 337 331 316 314 303 276 283 288 292 273 264 262 229 219 221 219 221 235 240 205 216 219 223 246 227 162 211 160 237 167 145 139 136